• In United Kingdom
  • List of Countries
  • For 7 days
  • Water Temperature
  • Satellite Maps
  • Weather Map
  • Weather Widgets
  • user-avatar
    Login

    Hourly Weather Río Gallegos

    Today, 25 November, Saturday

    Time Temperature Precipitation Wind Pressure Humidity
    00:00 +9°C° 0 mm 13 mps 744 mmHg 60%
    01:00 +9°C° 0 mm 14 mps 743 mmHg 61%
    02:00 +9°C° 0 mm 14 mps 743 mmHg 62%
    03:00 +10°C° 0 mm 15 mps 744 mmHg 64%
    04:00 +10°C° 0 mm 16 mps 744 mmHg 65%
    05:00 +11°C° 0 mm 17 mps 744 mmHg 61%
    06:00 +13°C° 0 mm 17 mps 744 mmHg 58%
    07:00 +12°C° 0 mm 18 mps 744 mmHg 54%
    08:00 +15°C° 0 mm 18 mps 744 mmHg 51%
    09:00 +16°C° 0 mm 17 mps 744 mmHg 48%
    10:00 +18°C° 0 mm 16 mps 743 mmHg 46%
    11:00 +18°C° 0 mm 16 mps 743 mmHg 46%
    12:00 +19°C° 0 mm 16 mps 742 mmHg 47%
    13:00 +19°C° 0 mm 16 mps 741 mmHg 47%
    14:00 +19°C° 0 mm 17 mps 741 mmHg 44%
    15:00 +19°C° 0 mm 17 mps 741 mmHg 40%
    16:00 +19°C° 0 mm 18 mps 740 mmHg 37%
    17:00 +18°C° 0 mm 17 mps 740 mmHg 41%
    18:00 +15°C° 0 mm 16 mps 739 mmHg 46%
    19:00 +14°C° 0 mm 16 mps 739 mmHg 50%
    20:00 +13°C° 0.1 mm 15 mps 738 mmHg 52%
    21:00 +13°C° 0.1 mm 15 mps 738 mmHg 53%
    22:00 +13°C° 0.1 mm 15 mps 737 mmHg 55%
    23:00 +10°C° 0.3 mm 16 mps 737 mmHg 57%

    Tomorrow, 26 November, Sunday

    Time Temperature Precipitation Wind Pressure Humidity
    00:00 +9°C° 0.3 mm 16 mps 737 mmHg 59%
    01:00 +7°C° 0.3 mm 17 mps 737 mmHg 62%
    02:00 +6°C° 0 mm 17 mps 738 mmHg 63%
    03:00 +5°C° 0 mm 17 mps 739 mmHg 64%
    04:00 +3°C° 0 mm 17 mps 740 mmHg 64%
    05:00 +3°C° 0 mm 18 mps 741 mmHg 59%
    06:00 +3°C° 0 mm 18 mps 743 mmHg 54%
    07:00 +5°C° 0 mm 19 mps 744 mmHg 48%
    08:00 +5°C° 0 mm 19 mps 746 mmHg 45%
    09:00 +5°C° 0 mm 18 mps 748 mmHg 42%
    10:00 +5°C° 0 mm 18 mps 750 mmHg 39%
    11:00 +5°C° 0 mm 18 mps 751 mmHg 39%
    12:00 +5°C° 0 mm 17 mps 752 mmHg 39%
    13:00 +5°C° 0 mm 16 mps 754 mmHg 38%
    14:00 +5°C° 0 mm 15 mps 755 mmHg 39%
    15:00 +5°C° 0 mm 14 mps 756 mmHg 40%
    16:00 +5°C° 0 mm 13 mps 757 mmHg 40%
    17:00 +5°C° 0 mm 13 mps 758 mmHg 42%
    18:00 +5°C° 0 mm 12 mps 759 mmHg 44%
    19:00 +4°C° 0 mm 12 mps 760 mmHg 46%
    20:00 +3°C° 0 mm 11 mps 761 mmHg 50%
    21:00 +3°C° 0 mm 10 mps 762 mmHg 54%
    22:00 +2°C° 0 mm 9 mps 762 mmHg 58%
    23:00 +2°C° 0 mm 8 mps 762 mmHg 60%

    Day after tomorrow, 27 November, Monday

    Time Temperature Precipitation Wind Pressure Humidity
    00:00 +2°C° 0 mm 8 mps 762 mmHg 61%
    01:00 +2°C° 0 mm 8 mps 762 mmHg 63%
    02:00 +2°C° 0 mm 8 mps 761 mmHg 62%
    03:00 +3°C° 0 mm 7 mps 761 mmHg 61%
    04:00 +3°C° 0 mm 7 mps 761 mmHg 61%
    05:00 +4°C° 0 mm 7 mps 760 mmHg 56%
    06:00 +5°C° 0 mm 8 mps 759 mmHg 52%
    07:00 +6°C° 0 mm 8 mps 759 mmHg 47%
    08:00 +7°C° 0.4 mm 8 mps 758 mmHg 48%
    09:00 +7°C° 0.4 mm 8 mps 757 mmHg 49%
    10:00 +9°C° 0.4 mm 8 mps 756 mmHg 49%
    11:00 +11°C° 0 mm 8 mps 756 mmHg 45%
    12:00 +13°C° 0 mm 9 mps 755 mmHg 40%
    13:00 +16°C° 0 mm 10 mps 754 mmHg 36%
    14:00 +14°C° 0.1 mm 10 mps 754 mmHg 41%
    15:00 +13°C° 0.1 mm 10 mps 753 mmHg 46%
    16:00 +12°C° 0.1 mm 9 mps 753 mmHg 51%
    17:00 +12°C° 0.1 mm 8 mps 753 mmHg 54%
    18:00 +12°C° 0.1 mm 7 mps 753 mmHg 56%
    19:00 +11°C° 0.1 mm 6 mps 753 mmHg 58%
    20:00 +11°C° 0.1 mm 7 mps 753 mmHg 60%
    21:00 +11°C° 0.1 mm 7 mps 753 mmHg 61%
    22:00 +10°C° 0.1 mm 7 mps 753 mmHg 63%
    23:00 +10°C° 0 mm 7 mps 753 mmHg 64%

    28 November, Tuesday

    Time Temperature Precipitation Wind Pressure Humidity
    00:00 +10°C° 0 mm 7 mps 753 mmHg 66%
    01:00 +9°C° 0 mm 6 mps 753 mmHg 67%
    02:00 +9°C° 0 mm 5 mps 753 mmHg 66%
    03:00 +9°C° 0 mm 5 mps 753 mmHg 66%
    04:00 +10°C° 0 mm 4 mps 753 mmHg 65%
    05:00 +12°C° 0 mm 4 mps 753 mmHg 59%
    06:00 +13°C° 0 mm 3 mps 752 mmHg 52%
    07:00 +16°C° 0 mm 3 mps 752 mmHg 45%
    08:00 +17°C° 0 mm 4 mps 751 mmHg 42%
    09:00 +19°C° 0 mm 4 mps 751 mmHg 39%
    10:00 +20°C° 0 mm 4 mps 750 mmHg 36%
    11:00 +21°C° 0 mm 5 mps 749 mmHg 34%
    12:00 +22°C° 0 mm 6 mps 748 mmHg 33%
    13:00 +23°C° 0 mm 8 mps 747 mmHg 32%
    14:00 +23°C° 0 mm 8 mps 747 mmHg 32%
    15:00 +23°C° 0 mm 8 mps 746 mmHg 32%
    16:00 +23°C° 0 mm 8 mps 746 mmHg 33%
    17:00 +21°C° 0 mm 9 mps 746 mmHg 36%
    18:00 +18°C° 0 mm 11 mps 747 mmHg 40%
    19:00 +15°C° 0 mm 13 mps 748 mmHg 43%
    20:00 +13°C° 0 mm 14 mps 749 mmHg 44%
    21:00 +10°C° 0 mm 15 mps 750 mmHg 45%
    22:00 +7°C° 0 mm 16 mps 752 mmHg 46%
    23:00 +8°C° 0 mm 15 mps 752 mmHg 50%

    29 November, Wednesday

    Time Temperature Precipitation Wind Pressure Humidity
    00:00 +6°C° 0 mm 15 mps 753 mmHg 54%
    01:00 +6°C° 0 mm 14 mps 754 mmHg 59%
    02:00 +5°C° 0 mm 13 mps 755 mmHg 60%
    03:00 +5°C° 0 mm 12 mps 756 mmHg 62%
    04:00 +6°C° 0 mm 10 mps 757 mmHg 64%
    05:00 +6°C° 0 mm 11 mps 758 mmHg 59%
    06:00 +7°C° 0 mm 11 mps 759 mmHg 54%
    07:00 +8°C° 0 mm 12 mps 760 mmHg 49%
    08:00 +9°C° 0 mm 11 mps 760 mmHg 46%
    09:00 +11°C° 0 mm 10 mps 760 mmHg 43%
    10:00 +12°C° 0 mm 10 mps 761 mmHg 40%
    11:00 +12°C° 0 mm 9 mps 761 mmHg 39%
    12:00 +13°C° 0 mm 8 mps 761 mmHg 37%
    13:00 +15°C° 0 mm 7 mps 761 mmHg 35%
    14:00 +14°C° 0 mm 7 mps 761 mmHg 36%
    15:00 +14°C° 0 mm 6 mps 761 mmHg 37%
    16:00 +14°C° 0 mm 6 mps 761 mmHg 37%
    17:00 +14°C° 0 mm 5 mps 761 mmHg 40%
    18:00 +13°C° 0 mm 5 mps 761 mmHg 43%
    19:00 +12°C° 0 mm 4 mps 761 mmHg 46%
    20:00 +12°C° 0 mm 5 mps 761 mmHg 47%
    21:00 +12°C° 0 mm 5 mps 761 mmHg 48%
    22:00 +10°C° 0 mm 5 mps 761 mmHg 49%
    23:00 +10°C° 0 mm 5 mps 761 mmHg 51%

    30 November, Thursday

    Time Temperature Precipitation Wind Pressure Humidity
    00:00 +11°C° 0 mm 4 mps 761 mmHg 53%
    01:00 +10°C° 0 mm 4 mps 760 mmHg 55%
    02:00 +10°C° 0 mm 3 mps 760 mmHg 57%
    03:00 +9°C° 0 mm 3 mps 760 mmHg 60%
    04:00 +9°C° 0 mm 2 mps 759 mmHg 62%
    05:00 +10°C° 0 mm 2 mps 759 mmHg 58%
    06:00 +11°C° 0 mm 3 mps 759 mmHg 53%
    07:00 +12°C° 0 mm 3 mps 759 mmHg 48%
    08:00 +13°C° 0 mm 5 mps 759 mmHg 46%
    09:00 +14°C° 0 mm 7 mps 759 mmHg 45%
    10:00 +14°C° 0 mm 10 mps 759 mmHg 43%
    11:00 +14°C° 0 mm 10 mps 759 mmHg 42%
    12:00 +14°C° 0 mm 11 mps 759 mmHg 41%
    13:00 +14°C° 0 mm 12 mps 760 mmHg 39%
    14:00 +14°C° 0 mm 11 mps 760 mmHg 39%
    15:00 +14°C° 0 mm 10 mps 760 mmHg 38%
    16:00 +14°C° 0 mm 10 mps 761 mmHg 37%
    17:00 +13°C° 0 mm 9 mps 761 mmHg 39%
    18:00 +12°C° 0 mm 8 mps 762 mmHg 41%
    19:00 +11°C° 0 mm 7 mps 762 mmHg 43%
    20:00 +10°C° 0 mm 6 mps 763 mmHg 47%
    21:00 +9°C° 0 mm 5 mps 763 mmHg 50%
    22:00 +8°C° 0 mm 4 mps 763 mmHg 54%
    23:00 +8°C° 0 mm 4 mps 763 mmHg 56%
    Show more